Williamsport, PA

5:50 AM EDT on July 25, 2017 (GMT -0400)
Williamsport Rgnl

Weather History for KIPT - November, 2012

Change the Weather History Date:

Monday, November 5, 2012

  Actual Average Record
Temperature  
Mean Temperature 37 °F 45 °F  
Max Temperature 39 °F 55 °F 77 °F (1994)
Min Temperature 35 °F 36 °F 19 °F (1951)
Degree Days  
Heating Degree Days 28 20  
Month to date heating degree days 119 96  
Since 1 July heating degree days 543 639  
Cooling Degree Days 0 0  
Month to date cooling degree days 0 0  
Year to date cooling degree days 951 702  
Moisture  
Dew Point 23 °F    
Average Humidity 54    
Maximum Humidity 64    
Minimum Humidity 44    
Precipitation  
Precipitation 0.00 in 0.11 in 1.59 in (1896)
Month to date precipitation T 0.58  
Year to date precipitation 29.98 35.19  
Snow  
Snow 0.00 in 0.10 in 1.00 in (1986)
Month to date snowfall T 0.2  
Since 1 July snowfall T 0.3  
Since 1 September snowfall T 0.3  
Snow Depth 0.00 in    
Sea Level Pressure  
Sea Level Pressure 30.12 in    
Wind  
Wind Speed 7 mph (NW)    
Max Wind Speed 13 mph    
Max Gust Speed 16 mph    
Visibility 10 miles    
Events      
T = Trace of Precipitation, MM = Missing Value Source: NWS Daily Summary

Daily Weather History Graph

Daily Weather History Graph

Search for Another Location

Airport or City:

Trip Planner

Search our weather history database for the weather conditions in past years. The results will help you decide how hot, cold, wet, or windy it might be!

Date:

Astronomy

Nov. 05, 2012 Rise Set
Actual Time 6:44 AM EST 4:57 PM EST
Civil Twilight 6:15 AM EST 5:26 PM EST
Nautical Twilight 5:42 AM EST 5:59 PM EST
Astronomical Twilight 5:10 AM EST 6:31 PM EST
Moon 10:33 PM EST (11/5) 12:02 PM EST (11/5)
Length of Visible Light 11h 11m
Length of Day
10h 13m
Waning Gibbous, 63% of the Moon is Illuminated
Nov 5
Waning Gibbous
Nov 6
Last Quarter
Nov 13
New
Nov 20
First Quarter
Nov 28
Full

Hourly Weather History & Observations

Time (EST) Temp. Windchill Dew Point Humidity Pressure Visibility Wind Dir Wind Speed Gust Speed Precip Events Conditions
12:54 AM 36.0 °F 30.3 °F 21.9 °F 57% 30.08 in 10.0 mi North 6.9 mph - N/A   Overcast
1:54 AM 35.1 °F 28.6 °F 21.9 °F 59% 30.07 in 10.0 mi NNW 8.1 mph - N/A   Overcast
2:54 AM 35.1 °F 32.2 °F 23.0 °F 61% 30.06 in 10.0 mi West 3.5 mph - N/A   Overcast
3:54 AM 35.1 °F 29.3 °F 23.0 °F 61% 30.06 in 10.0 mi West 6.9 mph - N/A   Overcast
4:54 AM 36.0 °F 30.3 °F 24.1 °F 62% 30.07 in 10.0 mi West 6.9 mph - N/A   Overcast
5:54 AM 36.0 °F 30.3 °F 24.1 °F 62% 30.08 in 10.0 mi West 6.9 mph - N/A   Overcast
6:54 AM 36.0 °F 30.3 °F 24.1 °F 62% 30.09 in 10.0 mi West 6.9 mph - N/A   Overcast
7:54 AM 36.0 °F 29.6 °F 24.1 °F 62% 30.11 in 10.0 mi West 8.1 mph - N/A   Overcast
8:54 AM 37.0 °F 32.4 °F 25.0 °F 62% 30.11 in 10.0 mi West 5.8 mph - N/A   Overcast
9:54 AM 39.0 °F 33.4 °F 25.0 °F 57% 30.12 in 10.0 mi WNW 8.1 mph - N/A   Overcast
10:54 AM 39.0 °F 33.4 °F 24.1 °F 55% 30.13 in 10.0 mi NW 8.1 mph - N/A   Overcast
11:54 AM 39.0 °F 32.8 °F 23.0 °F 53% 30.12 in 10.0 mi North 9.2 mph - N/A   Overcast
12:54 PM 39.0 °F 34.0 °F 24.1 °F 55% 30.11 in 10.0 mi North 6.9 mph - N/A   Overcast
1:54 PM 39.0 °F 32.3 °F 24.1 °F 55% 30.11 in 10.0 mi NW 10.4 mph - N/A   Overcast
2:54 PM 39.0 °F 34.0 °F 24.1 °F 55% 30.12 in 10.0 mi NW 6.9 mph - N/A   Overcast
3:54 PM 39.0 °F 34.0 °F 24.1 °F 55% 30.12 in 10.0 mi NW 6.9 mph - N/A   Overcast
4:54 PM 37.9 °F 33.5 °F 21.9 °F 53% 30.13 in 10.0 mi WNW 5.8 mph - N/A   Overcast
5:54 PM 39.0 °F 34.0 °F 19.9 °F 46% 30.13 in 10.0 mi NNW 6.9 mph - N/A   Overcast
6:54 PM 37.9 °F 33.5 °F 19.9 °F 48% 30.16 in 10.0 mi WNW 5.8 mph - N/A   Overcast
7:54 PM 37.9 °F 35.5 °F 21.0 °F 51% 30.17 in 10.0 mi NW 3.5 mph - N/A   Overcast
8:54 PM 37.9 °F 32.1 °F 24.1 °F 57% 30.18 in 10.0 mi North 8.1 mph - N/A   Overcast
9:54 PM 37.0 °F 32.4 °F 23.0 °F 57% 30.19 in 10.0 mi NE 5.8 mph - N/A   Overcast
10:54 PM 37.0 °F 31.0 °F 21.0 °F 52% 30.19 in 10.0 mi NE 8.1 mph - N/A   Overcast
11:54 PM 36.0 °F 32.1 °F 19.9 °F 52% 30.19 in 10.0 mi NNE 4.6 mph - N/A   Overcast